Location: Platte
(43.3870°N, 98.8440°W)
Time: 05:15:12
(UTC-06:00)

Daily predictions for brighter satellites

Satellite Brightness Start Highest point End
(mag) Time Altitude Azimuth Time Altitude Azimuth Time Altitude Azimuth
USA 267 3.9 04:22:23 10° NE 04:27:03 49° ENE 04:27:03 49° ENE
Cosmos 2082 Rocket 4.4 04:38:46 17° NNE 04:38:46 17° NNE 04:40:01 10° NNE
SeaSat 1 3.6 04:52:56 10° NE 04:56:29 40° ENE 04:56:29 40° ENE
COSMO-SKYMED 1 4.3 04:59:40 10° SE 05:03:24 29° ENE 05:03:42 29° ENE
USA 234 3.5 04:57:51 10° ESE 05:04:15 60° NNE 05:05:11 55° N
Cosmos 1980 Rocket 2.7 05:11:01 51° SSE 05:11:01 51° SSE 05:15:10 10° SSE
Cosmos 2279 Rocket 4.4 05:11:50 48° S 05:11:50 48° S 05:16:10 10° S
CZ-4C R/B 2.8 05:13:20 40° SSE 05:14:46 52° ESE 05:20:27 10° NE
BREEZE-M DEB (TANK) 4.1 05:22:59 47° NW 05:24:39 54° N 05:28:35 10° ENE
Meteor 2-20 4.3 05:24:32 10° S 05:30:38 87° W 05:36:46 10° N
Cosmos 2180 Rocket 4.4 05:31:22 62° WNW 05:32:04 67° W 05:38:14 10° S
IDEFIX/ARIANE 42P 3.5 05:31:36 10° NNE 05:36:38 47° E 05:41:39 10° S
Meteor 2-4 Rocket 3.5 05:39:09 67° WNW 05:39:32 70° W 05:45:03 10° S
ATLAS 5 CENTAUR R/B 4.4 05:37:40 11° N 05:40:04 13° NNE 05:42:54 10° NE
SL-16 R/B 2.3 05:46:49 28° NNW 05:49:53 72° ENE 05:55:33 10° SSE
SKYMED 2 3.4 05:46:57 10° SSE 05:51:18 89° WSW 05:52:20 52° NNW
Meteor 1-11 Rocket 3.8 05:48:56 10° SSW 05:54:42 53° WNW 06:00:26 10° N
Cosmos 2322 Rocket 2.3 05:52:05 26° NNW 05:55:22 77° ENE 06:01:03 10° SSE
Feng Yun 1-1 Rocket 4.2 05:53:07 10° NNE 05:58:59 86° WNW 06:04:39 10° SSW
Cosmos 1538 Rocket 3.9 05:54:34 10° SSW 05:59:46 70° WNW 06:05:04 10° NNE
BREEZE-M DEB (TANK) 3.7 06:01:21 25° SSE 06:01:58 28° SE 06:04:53 10° ENE
Nadezhda 4 Rocket 3.9 05:56:28 10° SSW 06:02:32 64° W 06:08:38 10° N
OE (NEXTSAT) 4.4 06:03:43 69° SSW 06:03:43 69° SSW 06:07:15 10° ESE
EO 1 Del DPAF 3.1 05:59:58 10° S 06:03:47 73° WSW 06:04:15 63° NW
Meteor 1-4 Rocket 2.6 06:04:06 10° S 06:07:53 84° E 06:11:42 10° NNE
Cosmos 923 Rocket 4.4 06:03:19 10° S 06:08:31 65° ESE 06:13:41 10° NNE
USA 267 3.7 06:05:37 10° NE 06:11:42 43° NNW 06:14:24 29° WNW
Meteor 1-5 Rocket 4.2 06:12:09 10° SSW 06:17:24 49° WNW 06:22:35 10° N
Cosmos 2082 Rocket 3.9 06:20:39 16° NNW 06:20:39 16° NNW 06:22:56 10° N
Okean 1-7 Rocket 3.7 06:14:45 10° N 06:19:18 82° E 06:23:52 10° S
Cosmos 1300 Rocket 3.9 06:15:57 10° SW 06:19:58 38° WNW 06:24:02 10° N
deb Kosmos-1763 4.0 06:16:31 10° SSW 06:20:13 63° WNW 06:23:57 10° NNE
APEX 3.9 06:17:59 10° S 06:21:14 53° ESE 06:25:19 10° NE
Cosmos 1500 3.0 06:18:55 10° SSW 06:22:46 74° W 06:26:37 10° N
Cosmos 1833 Rocket 4.4 06:24:36 15° NNW 06:24:36 15° NNW 06:26:29 10° N
Cosmos 1025 Rocket 2.9 06:21:52 17° NNW 06:25:08 64° W 06:29:22 10° S
PAYLOAD A 4.2 06:26:06 10° N 06:31:25 55° WNW 06:36:37 10° SSW
Cosmos 1184 Rocket 2.7 06:30:56 21° NNW 06:33:02 71° W 06:36:20 10° S
Cosmos 1271 Rocket 4.5 06:31:06 10° SSE 06:34:31 34° E 06:37:56 10° NNE
SeaSat 1 3.4 06:30:58 10° N 06:35:00 26° NW 06:36:18 23° WNW
CZ-4 R/B 3.3 06:35:10 10° NNE 06:39:01 34° E 06:42:52 10° SSE
COSMO-SKYMED 1 3.5 06:35:50 10° SSW 06:39:31 27° W 06:40:55 22° WNW
Cosmos 1092 Rocket 4.2 06:38:04 10° SSW 06:43:52 44° WNW 06:49:44 10° N
Cosmos 2333 Rocket 4.2 06:41:26 10° N 06:46:04 24° NE 06:50:39 10° ESE
Okean-O 3.4 06:43:01 10° N 06:46:49 28° WNW 06:50:35 10° SW
USA 234 3.7 06:41:09 10° SSE 06:47:22 46° SW 06:52:33 15° WNW
CZ-2C R/B 2.5 06:43:56 10° N 06:48:37 50° WNW 06:53:09 10° SW
COSMOS 2428 3.9 06:43:59 10° NNW 06:49:24 41° ENE 06:54:47 10° SE
Cosmos 2360 Rocket 2.2 06:45:59 10° NNW 06:51:42 90° WSW 06:57:22 10° SSE
GEOS 3 Rocket 4.0 06:46:30 10° NE 06:51:55 74° SE 06:57:16 10° SSW
Cosmos 1066 Rocket 4.1 06:46:55 10° NNW 06:52:14 65° W 06:57:35 10° S
Cosmos 1980 Rocket 4.0 06:52:50 12° W 06:52:50 12° W 06:54:26 10° WSW
Ariane Rocket 3.5 06:48:55 10° NNE 06:53:58 63° ESE 06:58:58 10° S
Cosmos 1666 2.9 06:51:11 10° S 06:55:01 77° E 06:58:50 10° NNE
Okean 1 Rocket 4.0 06:52:21 10° SW 06:56:02 26° WNW 06:59:47 10° NNW
Cosmos 2026 Rocket 4.1 06:51:31 10° SSW 06:57:39 57° WNW 07:03:55 10° N
Cosmos 1655 Rocket 4.0 06:51:59 10° SSW 06:58:13 78° W 07:04:33 10° N
SJ-12 4.1 06:54:24 10° N 06:58:20 48° WNW 07:02:14 10° SSW
Cosmos 389 Rocket 2.5 06:54:55 10° S 06:58:33 86° WNW 07:02:10 10° N
Okean 2 4.4 06:56:05 13° NW 06:58:51 25° W 07:02:14 10° SW
Cosmos 2219 Rocket 3.7 06:55:52 10° N 07:00:59 34° NE 07:06:06 10° ESE
Cosmos 1975 3.1 06:58:59 10° SSW 07:02:48 45° WNW 07:06:40 10° N
CZ-4C R/B 3.0 06:58:47 10° W 07:03:35 31° NW 07:09:03 10° NNE
Cosmos 1553 Rocket 4.0 06:59:07 10° NNW 07:05:22 74° W 07:11:28 10° S
SJ-7 4.3 07:02:37 10° N 07:06:39 69° WNW 07:10:44 10° SSW
Cosmos 1624 Rocket 4.1 07:08:18 10° NNW 07:13:41 90° ENE 07:19:02 10° SSE
Cosmos 1626 Rocket 4.2 07:10:17 10° N 07:14:34 58° E 07:18:50 10° SSE
Cosmos 1892 Rocket 3.8 07:10:50 10° NNW 07:15:04 47° W 07:19:13 10° SSW
YAOGAN 1 3.3 07:10:51 10° NNE 07:15:09 58° E 07:19:24 10° S
IDEFIX/ARIANE 42P 3.6 07:11:50 10° NNW 07:15:57 24° WNW 07:20:03 10° WSW
AQUARIUS 4.1 07:11:56 10° N 07:16:26 73° WNW 07:20:54 10° SSW
Cosmos 2237 Rocket 4.0 07:12:46 10° N 07:17:27 25° NE 07:22:05 10° ESE
ERS-2 4.4 07:15:17 10° NE 07:18:33 29° E 07:21:48 10° SSE
Cosmos 1680 Rocket 3.9 07:14:04 10° SW 07:18:57 41° WNW 07:23:54 10° N
ATLAS CENTAUR R/B 1.3 07:20:24 10° SSW 07:24:05 75° ESE 07:27:46 10° NE
CSL-04 Debris 4.2 07:19:33 10° N 07:24:59 70° WNW 07:30:24 10° SSW
ATLAS 5 CENTAUR R/B 3.4 07:20:49 10° NNW 07:26:19 40° NE 07:32:21 10° ESE
Cosmos 2219 4.1 07:23:05 10° S 07:28:36 55° ESE 07:34:06 10° NNE
MSX 4.5 07:24:31 10° N 07:29:33 32° WNW 07:34:33 10° SW
